Location: Pian di Sc�
(43.6333°N, 11.5500°E)
Time: 12:07:44
(UTC+00:00)

NOSS 2-3 (D) - Pass Details

Date: 07 August 2020
Orbit: 573 x 1638 km, 63.4° (Epoch: 22 September)

Event Time Altitude Azimuth Distance (km) Brightness Sun altitude
Exits shadow 02:33:51 23° 197° (SSW) 1,273 4.7 -15.4°
Maximum altitude 02:36:21 63° 122° (ESE) 695 3.8 -15.1°
Drops below altitude 10° 02:41:05 10° 42° (NE) 2,179 7.8 -14.4°
Sets 02:43:42 0° 39° (NE) 3,239 9.0 -14.1°
